Weather History for Lewisburg, WV

Change the Weather History Date:

Friday, February 15, 2013

  Actual Average Record
Temperature  
Mean Temperature 34 °F 32 °F  
Max Temperature 46 °F 43 °F 68 °F (1989)
Min Temperature 23 °F 21 °F 8 °F (1991)
Degree Days  
Heating Degree Days 30    
Month to date heating degree days  
Since 1 July heating degree days  
Cooling Degree Days 0    
Month to date cooling degree days  
Year to date cooling degree days  
Moisture  
Dew Point 25 °F    
Average Humidity 76    
Maximum Humidity 93    
Minimum Humidity 43    
Precipitation  
Precipitation 0.00 in 0.10 in 0.92 in (1970)
Month to date precipitation 1.56  
Year to date precipitation 4.71  
Snow  
Snow 0.00 in - - ()
Month to date snowfall  
Since 1 July snowfall  
Snow Depth -    
Sea Level Pressure  
Sea Level Pressure 29.98 in    
Wind  
Wind Speed 4 mph (WSW)    
Max Wind Speed 14 mph    
Max Gust Speed 22 mph    
Visibility 10 miles    
Events Snow    
T = Trace of Precipitation, MM = Missing Value Source: NWS Daily Summary

Daily Weather History Graph

Daily Weather History Graph

Search for Another Location

Airport:

Trip Planner

Search our weather history database for the weather conditions in past years. The results will help you decide how hot, cold, wet, or windy it might be!

Date:

Astronomy

Feb. 15, 2013 Rise Set
Actual Time 7:11 AM EST 6:00 PM EST
Civil Twilight 6:44 AM EST 6:27 PM EST
Nautical Twilight 6:13 AM EST 6:58 PM EST
Astronomical Twilight 5:42 AM EST 7:29 PM EST
Moon 9:53 AM EST (2/15) 11:53 PM EST (2/15)
Length of Visible Light 11h 43m
Length of Day
10h 49m
Waxing Crescent, 30% of the Moon is Illuminated
Feb 15
Waxing Crescent
Feb 17
First Quarter
Feb 25
Full
Mar 4
Last Quarter
Mar 11
New

Hourly Weather History & Observations

Time (EST) Temp. Windchill Dew Point Humidity Pressure Visibility Wind Dir Wind Speed Gust Speed Precip Events Conditions
12:15 AM 30.2 °F 26.7 °F 21.2 °F 69% 29.98 in 10.0 mi SSW 3.5 mph - N/A   Clear
12:35 AM 30.2 °F 26.7 °F 21.2 °F 69% 29.97 in 10.0 mi SSW 3.5 mph - N/A   Scattered Clouds
12:55 AM 30.2 °F 26.7 °F 21.2 °F 69% 29.97 in 10.0 mi SSW 3.5 mph - N/A   Mostly Cloudy
1:15 AM 30.2 °F 25.4 °F 23.0 °F 75% 29.97 in 10.0 mi SW 4.6 mph - N/A   Mostly Cloudy
1:35 AM 26.6 °F 22.6 °F 21.2 °F 80% 29.98 in 10.0 mi SSW 3.5 mph - N/A   Scattered Clouds
1:55 AM 28.4 °F 24.6 °F 21.2 °F 74% 29.98 in 10.0 mi SW 3.5 mph - N/A   Scattered Clouds
2:15 AM 28.4 °F 24.6 °F 23.0 °F 80% 29.98 in 10.0 mi SW 3.5 mph - N/A   Scattered Clouds
2:35 AM 28.4 °F 23.3 °F 23.0 °F 80% 29.99 in 10.0 mi SW 4.6 mph - N/A   Clear
2:55 AM 28.4 °F 24.6 °F 23.0 °F 80% 29.99 in 10.0 mi SW 3.5 mph - N/A   Clear
3:15 AM 30.2 °F - 23.0 °F 75% 29.99 in 10.0 mi Calm Calm - N/A   Scattered Clouds
3:35 AM 28.4 °F - 23.0 °F 80% 29.99 in 10.0 mi Calm Calm - N/A   Mostly Cloudy
3:55 AM 30.2 °F - 23.0 °F 75% 29.98 in 10.0 mi Calm Calm - N/A   Mostly Cloudy
4:15 AM 28.4 °F 24.6 °F 23.0 °F 80% 29.98 in 10.0 mi SW 3.5 mph - N/A   Scattered Clouds
4:35 AM 28.4 °F 24.6 °F 23.0 °F 80% 29.99 in 10.0 mi WSW 3.5 mph - N/A   Clear
4:55 AM 28.4 °F - 23.0 °F 80% 29.98 in 10.0 mi Calm Calm - N/A   Clear
5:15 AM 28.4 °F 24.6 °F 23.0 °F 80% 29.99 in 10.0 mi SW 3.5 mph - N/A   Clear
5:35 AM 28.4 °F 24.6 °F 23.0 °F 80% 29.99 in 10.0 mi SSW 3.5 mph - N/A   Clear
5:55 AM 26.6 °F - 23.0 °F 86% 30.00 in 10.0 mi Calm Calm - N/A   Clear
6:15 AM 28.4 °F - 23.0 °F 80% 30.00 in 10.0 mi Calm Calm - N/A   Clear
6:35 AM 23.0 °F - 21.2 °F 93% 30.00 in 10.0 mi Calm Calm - N/A   Clear
6:55 AM 23.0 °F - 21.2 °F 93% 30.00 in 10.0 mi Calm Calm - N/A   Clear
7:15 AM 24.8 °F 20.5 °F 21.2 °F 86% 30.00 in 10.0 mi NNE 3.5 mph - N/A   Clear
7:35 AM 23.0 °F - 19.4 °F 86% 30.01 in 10.0 mi Calm Calm - N/A   Clear
7:55 AM 23.0 °F - 21.2 °F 93% 30.02 in 10.0 mi Calm Calm - N/A   Clear
8:15 AM 26.6 °F - 23.0 °F 86% 30.02 in 10.0 mi Calm Calm - N/A   Clear
8:35 AM 28.4 °F - 23.0 °F 80% 30.03 in 10.0 mi Calm Calm - N/A   Clear
8:55 AM 30.2 °F 26.7 °F 24.8 °F 80% 30.03 in 10.0 mi NNE 3.5 mph - N/A   Clear
9:15 AM 32.0 °F 27.5 °F 26.6 °F 80% 30.02 in 10.0 mi North 4.6 mph - N/A   Clear
9:35 AM 32.0 °F - 28.4 °F 87% 30.02 in 10.0 mi Calm Calm - N/A   Clear
9:55 AM 35.6 °F - 28.4 °F 75% 30.01 in 10.0 mi Calm Calm - N/A   Clear
10:15 AM 35.6 °F 31.7 °F 28.4 °F 75% 30.00 in 10.0 mi SW 4.6 mph - N/A   Clear
10:35 AM 37.4 °F 32.1 °F 28.4 °F 70% 30.00 in 10.0 mi SW 6.9 mph - N/A   Clear
10:55 AM 39.2 °F 35.0 °F 28.4 °F 65% 29.99 in 10.0 mi SSW 5.8 mph - N/A   Clear
11:15 AM 41.0 °F 35.2 °F 28.4 °F 61% 29.99 in 10.0 mi SW 9.2 mph - N/A   Clear
11:35 AM 42.8 °F 39.3 °F 28.4 °F 57% 29.98 in 10.0 mi SW 5.8 mph - N/A   Clear
11:55 AM 42.8 °F 38.0 °F 28.4 °F 57% 29.97 in 10.0 mi SSW 8.1 mph - N/A   Clear
12:15 PM 44.6 °F 39.2 °F 28.4 °F 53% 29.96 in 10.0 mi WSW 10.4 mph 17.3 mph N/A   Clear
12:35 PM 46.4 °F 41.9 °F 28.4 °F 50% 29.95 in 10.0 mi SW 9.2 mph - N/A   Scattered Clouds
1:15 PM 44.6 °F 38.1 °F 26.6 °F 49% 29.93 in 10.0 mi WSW 13.8 mph - N/A   Overcast
1:35 PM 44.6 °F 40.7 °F 26.6 °F 49% 29.92 in 10.0 mi West 6.9 mph - N/A   Mostly Cloudy
1:55 PM 46.4 °F 41.1 °F 24.8 °F 43% 29.91 in 10.0 mi West 11.5 mph - N/A   Overcast
2:15 PM 46.4 °F 41.9 °F 24.8 °F 43% 29.90 in 10.0 mi WSW 9.2 mph 16.1 mph N/A   Scattered Clouds
2:35 PM 46.4 °F 41.9 °F 28.4 °F 50% 29.89 in 10.0 mi NW 9.2 mph 16.1 mph N/A   Scattered Clouds
2:55 PM 44.6 °F 39.2 °F 28.4 °F 53% 29.89 in 10.0 mi NW 10.4 mph 16.1 mph N/A   Mostly Cloudy
3:15 PM 42.8 °F 36.6 °F 28.4 °F 57% 29.90 in 10.0 mi WNW 11.5 mph - N/A   Overcast
3:35 PM 37.4 °F 29.8 °F 28.4 °F 70% 29.91 in 10.0 mi WNW 11.5 mph 17.3 mph N/A   Overcast
3:55 PM 35.6 °F 26.6 °F 28.4 °F 75% 29.93 in 10.0 mi West 13.8 mph 21.9 mph N/A   Overcast
4:15 PM 32.0 °F 23.6 °F 28.4 °F 87% 29.95 in 5.0 mi West 10.4 mph 20.7 mph N/A Snow Light Snow
4:35 PM 32.0 °F 26.4 °F 28.4 °F 87% 29.96 in 3.0 mi WNW 5.8 mph - N/A Snow Light Snow
4:55 PM 32.0 °F - 30.2 °F 93% 29.97 in 4.0 mi Calm Calm - N/A Snow Light Snow
5:15 PM 32.0 °F - 28.4 °F 87% 29.98 in 5.0 mi Calm Calm - N/A Snow Light Snow
5:35 PM 32.0 °F - 30.2 °F 93% 29.97 in 10.0 mi Calm Calm - N/A   Overcast
6:15 PM 32.0 °F 24.2 °F 28.4 °F 87% 29.98 in 4.0 mi WSW 9.2 mph - N/A Snow Light Snow
6:35 PM 32.0 °F 25.6 °F 28.4 °F 87% 29.99 in 7.0 mi West 6.9 mph - N/A Snow Light Snow
6:55 PM 32.0 °F 25.6 °F 28.4 °F 87% 30.00 in 10.0 mi West 6.9 mph - N/A   Overcast
7:15 PM 30.2 °F 25.4 °F 28.4 °F 93% 30.00 in 10.0 mi West 4.6 mph - N/A   Overcast
7:35 PM 30.2 °F 24.3 °F 28.4 °F 93% 30.00 in 10.0 mi West 5.8 mph - N/A   Overcast
7:55 PM 30.2 °F 23.4 °F 28.4 °F 93% 30.01 in 10.0 mi West 6.9 mph - N/A   Overcast
8:15 PM 30.2 °F 24.3 °F 26.6 °F 86% 30.01 in 10.0 mi West 5.8 mph - N/A   Overcast
8:35 PM 30.2 °F 25.4 °F 26.6 °F 86% 30.01 in 10.0 mi West 4.6 mph - N/A Snow Light Snow
8:55 PM 30.2 °F 24.3 °F 26.6 °F 86% 30.02 in 10.0 mi West 5.8 mph - N/A   Overcast
9:15 PM 30.2 °F - 26.6 °F 86% 30.01 in 10.0 mi Calm Calm - N/A Snow Light Snow
9:35 PM 30.2 °F 25.4 °F 26.6 °F 86% 30.02 in 10.0 mi West 4.6 mph - N/A   Overcast
9:55 PM 30.2 °F 23.4 °F 26.6 °F 86% 30.02 in 10.0 mi West 6.9 mph - N/A   Overcast
10:15 PM 30.2 °F 26.7 °F 24.8 °F 80% 30.01 in 10.0 mi WNW 3.5 mph - N/A   Overcast
10:35 PM 30.2 °F 25.4 °F 23.0 °F 75% 30.00 in 10.0 mi WNW 4.6 mph - N/A   Scattered Clouds
10:55 PM 30.2 °F 22.6 °F 23.0 °F 75% 30.00 in 10.0 mi WNW 8.1 mph - N/A   Mostly Cloudy
11:15 PM 30.2 °F 24.3 °F 23.0 °F 75% 29.99 in 10.0 mi WNW 5.8 mph - N/A   Overcast
11:35 PM 30.2 °F 24.3 °F 23.0 °F 75% 29.99 in 10.0 mi WNW 5.8 mph - N/A   Mostly Cloudy
11:55 PM 30.2 °F 21.9 °F 23.0 °F 75% 29.98 in 10.0 mi WNW 9.2 mph - N/A   Scattered Clouds